Location: *
(43.0749°S, 179.9618°W)
Time: 12:49:05
(UTC+00:00)

Daily predictions for brighter satellites

Satellite Brightness Start Highest point End
(mag) Time Altitude Azimuth Time Altitude Azimuth Time Altitude Azimuth
CZ-4C R/B 4.4 12:00:35 10° SSW 12:03:49 20° SSE 12:03:49 20° SSE
Resurs 1-4 Rocket 4.4 12:36:36 19° S 12:36:36 19° S 12:38:06 10° S
ATLAS 5 CENTAUR R/B 4.4 12:31:13 10° SSW 12:33:44 20° S 12:33:44 20° S
Cosmos 2344 4.4 12:23:04 10° SW 12:37:33 87° WNW 12:37:33 87° WNW
ADEOS II 4.3 13:02:38 22° S 13:02:38 22° S 13:04:28 10° S
Cosmos 2369 Rocket 4.1 13:08:44 26° SSE 13:08:44 26° SSE 13:11:10 10° SSE
USA 215 4.4 13:25:41 10° E 13:31:42 39° SSE 13:37:43 10° SW
Cosmos 1943 Rocket 4.0 13:59:48 23° SSW 13:59:48 23° SSW 14:02:38 10° S
USA 281 4.4 13:52:35 10° S 13:57:36 31° SW 13:57:36 31° SW
Cosmos 2098 Rocket 4.5 14:06:31 58° SSE 14:06:31 58° SSE 14:12:07 10° S
ATLAS 2AS CENTAUR R/B 2.9 14:03:26 10° SSW 14:09:21 66° S 14:09:21 66° S
Cosmos 1553 Rocket 4.4 14:16:22 10° S 14:22:45 59° E 14:23:20 57° ENE
Cosmos 2221 4.3 14:27:15 10° S 14:30:06 31° SE 14:30:06 31° SE
ARIANE 5 R/B 4.2 14:36:16 25° SSW 14:36:16 25° SSW 14:38:27 10° SSW
BREEZE-M DEB (TANK) 3.8 14:36:13 10° WSW 14:46:36 49° S 14:50:14 10° E
Meteor 2-15 Rocket 4.4 14:40:47 10° S 14:46:25 72° SW 14:46:25 72° SW
Cosmos 2369 Rocket 3.9 14:50:31 21° SW 14:50:31 21° SW 14:54:20 10° S
DNEPR-1 R/B 4.3 14:52:04 77° NE 14:52:16 78° ENE 14:59:16 10° SE
SL-16 R/B 2.4 14:49:57 10° SSE 14:56:16 90° ENE 14:56:50 76° NNW
CZ-2C R/B 3.0 14:59:13 47° S 14:59:13 47° S 15:02:37 10° SSW
BREEZE-M DEB (TANK) 3.7 14:59:22 47° SW 14:59:55 49° SSW 15:03:10 10° SE
PSLV R/B 4.2 15:01:20 53° SSE 15:01:20 53° SSE 15:04:57 10° S
RESURS DK-1 4.5 15:01:26 10° S 15:05:03 27° SE 15:08:38 10° ENE
UNK 4.5 15:00:37 10° S 15:04:02 46° SSW 15:04:02 46° SSW
ALOS 3.1 15:04:16 31° NE 15:06:10 50° ESE 15:10:46 10° S
Cosmos 371 Rocket 3.4 15:08:05 74° S 15:08:05 74° S 15:12:37 10° SSE
Cosmos 1484 Rocket 4.3 15:07:39 28° ENE 15:08:51 35° ESE 15:12:32 10° S
Cosmos 1825 3.8 15:11:24 30° S 15:11:24 30° S 15:13:29 10° S
Cosmos 2227 Rocket 3.9 15:04:37 10° S 15:09:47 33° SE 15:14:54 10° ENE
S3M 3.9 15:04:48 10° S 15:11:08 88° W 15:12:58 49° N
USA 215 3.1 15:07:42 10° NE 15:14:18 86° NW 15:20:57 10° SW
Cosmos 2266 Rocket 4.1 15:12:07 43° N 15:14:27 79° E 15:20:56 10° S
CZ-4C R/B 4.0 15:11:33 10° SSE 15:15:22 53° E 15:15:22 53° E
Milstar 3 4.3 15:17:14 31° NNW 15:18:20 32° N 15:29:56 10° NE
Cosmos 1809 Rocket 4.3 15:17:53 60° NNW 15:19:01 77° W 15:25:13 10° S
FENGYUN 3A 3.7 15:18:52 29° NNE 15:21:48 83° ESE 15:27:18 10° SSW
Cosmos 1140 Rocket 3.7 15:18:34 10° SSW 15:23:53 71° ESE 15:29:09 10° NNE
Cosmos 2297 Rocket 2.9 15:20:16 10° SSW 15:25:54 54° ESE 15:31:27 10° NE
Cosmos 405 Rocket 4.3 15:26:33 23° NE 15:28:25 34° E 15:32:11 10° SSE
Meteor 2-21 4.3 15:27:04 50° NNW 15:28:44 76° W 15:34:52 10° S
Cosmos 1655 Rocket 4.0 15:27:20 50° NW 15:29:00 69° W 15:35:22 10° S
ATLAS 2A CENTAUR R/B 4.3 15:27:35 10° NNE 15:29:01 11° NE 15:31:04 10° NE
SL-4 R/B 2.8 15:29:52 46° SW 15:30:13 47° SSW 15:34:45 10° SE
FALCON 9 DEB 4.3 15:37:59 34° SSE 15:37:59 34° SSE 15:40:12 10° SE
Cosmos 1023 Rocket 4.4 15:31:49 10° SSW 15:37:11 86° WNW 15:42:30 10° NNE
DELTA 2 DEB (DPAF) 4.4 15:35:34 10° S 15:39:59 51° WSW 15:39:59 51° WSW
USA 305 2.7 15:41:14 73° W 15:41:36 82° SW 15:45:58 10° SE
FALCON 9 DEB 4.0 15:42:37 40° S 15:42:37 40° S 15:45:04 10° SE
Cosmos 2058 4.3 15:45:41 27° SW 15:45:41 27° SW 15:48:31 10° SSW
Lacrosse 5 rocket 1.1 15:43:57 54° SW 15:44:47 83° SE 15:48:44 10° NE
Cosmos 2084 3.8 15:45:30 44° N 15:46:45 64° ENE 15:51:12 10° SE
Cosmos 304 Rocket 3.7 15:45:45 52° NW 15:46:47 70° WSW 15:51:40 10° SSE
Timation 2 Rocket 4.1 15:40:59 10° SSW 15:47:32 83° ESE 15:54:18 10° NNE
Cosmos 1980 Rocket 4.3 15:47:24 10° NNE 15:51:50 24° ENE 15:56:17 10° SE
SJ-6F 4.4 15:51:33 46° NNW 15:52:37 64° W 15:56:51 10° SSW
USA 307 2.9 15:52:57 53° W 15:53:48 71° SW 15:58:09 10° SE
ADEOS 3.6 15:49:08 10° NNE 15:54:23 86° ESE 15:59:44 10° SSW
Cosmos 1437 Rocket 4.2 15:51:04 10° S 15:54:58 40° ESE 15:58:52 10° NNE
CBERS 1 LM4 rocket 4.4 15:53:02 24° N 15:55:55 59° W 16:01:00 10° SSW
USA 306 3.0 15:55:29 49° W 15:56:27 66° SW 16:00:48 10° SE
Cosmos 1076 Rocket 4.1 15:58:34 38° W 15:58:46 38° WSW 16:02:57 10° S
Cosmos 2219 3.2 15:54:11 10° SSW 16:00:02 89° WNW 16:05:48 10° NNE
ATLAS 2AS CENTAUR R/B 4.4 15:55:17 10° WSW 16:09:07 - N 15:56:35 15° WSW
ADEOS Rocket 3.5 15:53:20 10° SSE 16:00:49 76° ENE 16:07:28 10° N
SL-24 R/B - RUBIN 2 4.0 15:57:52 10° SW 16:03:06 84° WNW 16:09:00 10° NNE
Okean 3 Rocket 4.3 15:58:49 10° N 16:03:17 56° E 16:07:49 10° SSE
USA 308 3.1 16:03:13 40° W 16:04:32 61° SSW 16:08:51 10° SE
CZ-4B R/B 4.2 16:03:45 10° NE 16:07:48 44° ESE 16:11:42 10° S
Cosmos 1633 2.6 16:07:35 43° NW 16:08:32 61° W 16:12:12 10° S
Cosmos 2221 4.5 16:05:34 10° SW 16:06:53 15° WSW 16:06:53 15° WSW
Cosmos 1954 Rocket 4.0 16:05:17 10° SSW 16:10:41 83° WNW 16:16:02 10° NNE
Cosmos 1697 Rocket 3.0 16:06:34 14° NNW 16:11:28 68° ENE 16:17:08 10° SSE
Cosmos 1624 Rocket 4.3 16:09:16 30° NW 16:11:39 51° WSW 16:16:56 10° S
Cosmos 1607 4.0 16:12:56 25° NW 16:16:32 65° SW 16:22:37 10° SSE
Cosmos 2056 Rocket 3.9 16:14:27 28° WNW 16:16:46 46° WSW 16:21:50 10° S
Alouette 2 Rocket 3.7 16:13:16 10° SSW 16:17:09 39° W 16:18:20 30° NW
Cosmos 407 Rocket 4.2 16:13:23 10° SW 16:18:11 33° W 16:22:55 10° NNW
Cosmos 839 Rocket 4.3 16:12:18 10° SW 16:18:52 81° WNW 16:26:55 10° NNE
Cosmos 2082 4.3 16:13:14 10° SSW 16:18:59 60° ESE 16:24:40 10° NE
Meteor 1-31 Rocket 2.7 16:16:16 10° N 16:20:04 63° W 16:23:56 10° SSW
Cosmos 1452 Rocket 3.8 16:15:36 10° N 16:20:52 69° ENE 16:26:12 10° SSE
Cosmos 2315 Rocket 4.2 16:15:16 10° SSW 16:21:24 49° W 16:27:25 10° NNW
H-2A R/B 3.5 16:20:03 10° NNE 16:23:45 54° ESE 16:27:28 10° S
SL-08 R/B 3.2 16:22:06 10° S 16:26:48 74° WSW 16:31:26 10° NNW
COSMOS 2455 3.9 16:23:25 10° SSW 16:29:19 49° SE 16:35:09 10° NE
Cosmos 1606 3.9 16:26:30 10° SW 16:29:34 22° W 16:29:36 22° W
ERBS 2.8 16:29:17 20° NNW 16:31:22 55° NE 16:34:42 10° SE
Cosmos 676 Rocket 4.1 16:27:24 10° SSW 16:32:38 54° WNW 16:37:50 10° N
YAOGAN 6 3.8 16:31:08 10° NNE 16:34:32 45° ESE 16:38:01 10° S
Cosmos 1933 3.6 16:31:26 10° SSW 16:35:22 45° W 16:39:13 10° NNW
Cosmos 2151 4.0 16:34:05 21° WNW 16:36:01 29° WSW 16:39:52 10° SSW
CZ-4B R/B 4.3 16:32:56 10° NNW 16:36:32 38° W 16:40:21 10° SSW
Cosmos 1242 Rocket 4.2 16:33:10 10° S 16:36:33 37° ESE 16:39:51 10° NE
Blok-L 4.5 16:28:39 10° NNW 16:37:36 63° NE 16:40:01 10° SE
SL-16 R/B 4.1 16:35:10 10° SSW 16:39:00 17° SW 16:41:55 13° W
Cosmos 1356 3.8 16:37:40 17° NW 16:40:04 44° WSW 16:43:28 10° S
BREEZE-M R/B 3.1 16:42:41 21° NW 16:42:50 21° NW 16:44:56 10° NNE
RESURS DK-1 3.2 16:39:24 10° SW 16:43:03 29° WNW 16:46:39 10° NNW
Cosmos 1484 Rocket 4.3 16:43:01 17° W 16:43:23 18° W 16:46:06 10° SW
ALOS 3.7 16:42:46 17° WNW 16:43:51 18° W 16:47:04 10° SW
Cosmos 1818 3.7 16:39:30 10° SW 16:44:41 49° WNW 16:49:50 10° N
Cosmos 2360 4.2 16:42:25 10° NNW 16:48:09 77° WSW 16:53:56 10° SSE
Cosmos 1656 4.5 16:44:37 15° WNW 16:48:40 34° SW 16:53:54 10° S
Cosmos 2369 3.7 16:43:49 10° NNW 16:49:33 78° WSW 16:55:20 10° SSE
Cosmos 1862 4.0 16:46:48 10° N 16:50:44 58° E 16:54:43 10° SSE
Meteor 1-26 Rocket 4.3 16:46:09 10° SSW 16:51:27 53° W 16:56:44 10° N
Cosmos 2227 Rocket 2.6 16:48:36 10° SW 16:53:53 39° WNW 16:59:06 10° N
Cosmos 1461 4.0 16:51:49 10° N 16:55:28 40° ENE 16:59:08 10° SE
Aureole 1 Rocket 3.7 16:50:39 10° SSW 16:55:36 85° WNW 17:02:07 10° NNE
Meteor 2-3 Rocket 4.2 16:51:26 10° NW 16:56:57 43° WSW 17:02:31 10° S
USA 215 4.2 16:52:49 10° N 16:57:52 23° WNW 17:02:57 10° WSW
H-2A R/B 4.5 16:54:35 10° NE 16:58:04 32° ESE 17:01:40 10° S
Timation 1 Rocket 4.4 16:52:55 10° SSW 16:58:56 67° WNW 17:04:55 10° NNE
Cosmos 292 Rocket 3.8 16:54:12 10° NNW 16:59:05 78° WSW 17:04:02 10° SSE
Abrixas rocket 2.3 16:57:28 14° W 16:59:24 42° SSW 17:01:52 10° SE
Cosmos 1766 Rocket 4.2 16:55:37 10° NW 16:59:40 36° WSW 17:03:47 10° S
SL-12 R/B (Aux Motor) 4.0 16:57:56 10° WSW 16:59:48 55° SSE 17:02:23 10° E
Cosmos 724 4.4 16:54:00 10° NW 16:59:54 67° SW 17:05:44 10° SSE
Cosmos 1151 Rocket 3.5 16:55:45 10° SSW 16:59:57 41° W 17:04:06 10° NNW
deb Chang Zheng 4 3.9 16:58:36 10° N 17:02:47 45° W 17:07:03 10° SSW
Cosmos 405 Rocket 4.4 17:01:43 11° WNW 17:04:30 19° WSW 17:07:31 10° SSW
Okean O Rocket 3.6 17:03:53 10° NE 17:08:01 36° ESE 17:12:10 10° S
Cosmos 1408 Rocket 3.7 17:04:28 10° NNW 17:08:45 55° W 17:13:05 10° S
Cosmos 2297 Rocket 3.3 17:05:09 10° SW 17:09:31 23° W 17:13:50 10° NNW
Cosmos 1850 Rocket 4.1 17:04:17 10° SSW 17:09:39 66° WNW 17:14:55 10° N
SL-4 R/B 3.9 17:06:44 10° WSW 17:10:43 28° S 17:14:54 10° ESE
Cosmos 1867 3.7 17:06:49 10° NW 17:12:10 59° SW 17:17:32 10° SSE
Cosmos 44 3.7 17:10:14 10° SW 17:14:03 32° WNW 17:17:52 10° N
Cosmos 1331 Rocket 4.1 17:08:58 10° NNW 17:14:11 85° ENE 17:19:31 10° SSE
SL-24 R/B 4.4 17:10:22 10° NNE 17:15:00 81° ESE 17:19:26 10° S
Cosmos 1812 2.7 17:14:14 10° SSW 17:18:10 70° W 17:22:03 10° N
Cosmos 2278 3.8 17:12:43 10° NNW 17:18:25 73° WSW 17:24:10 10° SSE
ATLAS CENTAUR R/B 3.9 17:16:53 10° NNW 17:25:07 40° NE 17:28:47 10° ESE
